Погода Тангуй

Хотите узнать прогноз погоды Тангуй? Тогда Вам сюда: Погода Тангуй

Поиск расширенной информации на нашем сайте:

Полезная информация:

Новости сайта



02.01.2020
Опубликован Долгосрочный прогноз погоды по городам России и ближнего зарубежья на январь 2020 года.
Карты: Прогноз на январь и февраль 2020 года, Сравнение прогнозируемой аномалии приземной температуры воздуха на январь 2020 года по разным моделям.




Погода Тангуй - сегодня

Время (UTC), дата Ветер
(°,м/с) 
Видим.   Явления Облачность Т
(°С)
Тd
(°С)
f(%) Тe
(°С)
Pmin
(гПа)
dP
(гПа)
Po
(мм)
O2
(г/м3)
Тmin Tmax R s Состояние
почвы
00 24.11.20 тихо ()   н/о  {ливн. осадки}  10/10 600 м кучево-дожд. 
[Cb cap]
-7.4 -8.8 90 -7  1038.6  1.1  738  306  -7.6    0.0  11  равномерный
сухой снег
100% 
03 24.11.20 тихо ()   20000 м  слаб. ливневой снег  10/10 600 м кучево-дожд. 
[Cb cap]
-6.1 -8.7 82 -6  1039.3  739  305           
06 24.11.20 тихо ()   20000 м  {ливн. осадки}  9/9 600 м кучево-дожд. 
[Cb cap]
-4.9 -11.3 61 -5  1039  -0.1  739  304           
09 24.11.20 тихо ()   20000 м  {ливн. осадки}  9/9 600 м кучево-дожд. 
[Cb cap]
-6.5 -12.7 61 -7  1039.6  0.2  739  306           
12 24.11.20 тихо ()   н/о  {ливн. осадки}  9/9 600 м кучево-дожд. 
[Cb cap]
-8.9 -11.7 80 -9  1041.3  1.2  740  309    -4.9  0.0     
15 24.11.20 020 (С) н/о    9/0 средняя 
[Ac trans]
-9.8 -11.9 85 -10  1042  0.5  740  310           
18 24.11.20 тихо ()   н/о    9/0 средняя 
[Ac trans]
-10.1 -12 86 -10  1042.3  0.2  740  311           
21 24.11.20 010 (С) н/о    9/5 600 м кучево-дожд., средняя 
[Cb cap|Ac trans]
-11 -12.5 89 -11  1042.4  -0.1  740  312           
00 25.11.20 тихо ()   н/о    9/3 600 м кучево-дожд., средняя 
[Cb cap|Ac trans]
-11.5 -13.3 86 -12  1042.9  0.4  740  313  -12.3      11  равномерный
сухой снег
100% 
03 25.11.20 060 (СВ) 20000 м    10/4 600 м кучево-дожд., средняя 
[Cb cap|Ac und]
-9.8 -12 84 -10  1043  0.4  741  311           
06 25.11.20 тихо ()   20000 м  {ливн. осадки}  10/6 600 м кучево-дожд., средняя 
[Cb cap|Ac und]
-6.5 -10.4 74 -7  1042.1  -0.2  741  307           
09 25.11.20 тихо ()   20000 м  слаб. ливневой снег  10/8 600 м кучево-дожд., средняя 
[Cb cap|Ac und]
-6.3 -11.7 65 -6  1042.5  0.4  741  307           
12 25.11.20 тихо ()   н/о  {ливн. осадки}  10/8 600 м кучево-дожд., средняя 
[Cb cap|Ac und]
-7.5 -10.6 78 -8  1043.4  0.6  741  308    -5.5  0.0     
15 25.11.20 тихо ()   н/о  {ливн. осадки}  10/4 600 м кучево-дожд., средняя 
[Cb cap|Ac und]
-8.3 -11 81 -8  1044  0.4  742  309           
18 25.11.20 тихо ()   н/о  {ливн. осадки}  10/3 600 м кучево-дожд., средняя 
[Cb cap|Ac und]
-8.9 -11.4 82 -9  1044.3  0.3  742  310           
21 25.11.20 тихо ()   н/о    10/0 средняя 
[Ac und]
-9.5 -12.1 81 -10  1044.4  -0.1  742  311           
00 26.11.20 тихо ()   н/о    10/0 средняя 
[Ac und]
-9.9 -12.3 83 -10  1045.2  0.7  742  311  -9.9      10  равномерный
сухой снег
100% 
03 26.11.20 тихо ()   20000 м    9/0 средняя 
[Ac trans]
-8.7 -11.2 82 -9  1045.7  0.7  743  310  -10         
06 26.11.20 тихо ()   20000 м  слаб. ливневой снег  10/3 600 м кучево-дожд., средняя 
[Cb cap|Ac und]
-6.9 -11.3 71 -7  1045.3  743  308           
09 26.11.20 тихо ()   20000 м  слаб. ливневой снег  9/4 600 м кучево-дожд., средняя 
[Cb cap|Ac trans]
-7.9 -11.7 74 -8  1046.1  0.5  743  309           
12 26.11.20 тихо ()   н/о  {ливн. осадки}  9/3 600 м кучево-дожд., средняя 
[Cb cap|Ac trans]
-8.6 -11.5 79 -9  1047.2  0.9  744  311    -6.9  0.0     
15 26.11.20 тихо ()   н/о    9/3 600 м кучево-дожд., средняя 
[Cb cap|Ac trans]
-8.9 -11.1 84 -9  1047.6  0.3  744  311           
18 26.11.20 тихо ()   н/о    6/0 средняя 
[Ac trans]
-11.8 -13.5 87 -12  1048.3  0.1  744  315           
21 26.11.20 тихо ()   н/о    1/0 средняя 
[Ac trans]
-16.5 -18.5 84 -17  1049.3  744  321           
00 27.11.20 тихо ()   н/о    ясно 
-19.3 -21.7 81 -19  1050.2  0.2  744  324  -19.3      равномерный
сухой снег
100% 
Время (UTC), дата Ветер
(°,м/с) 
Видим.   Явления Облачность Т
(°С)
Тd
(°С)
f(%) Тe
(°С)
Pmin
(гПа)
dP
(гПа)
Po
(мм)
O2
(г/м3)
Тmin Tmax R s Состояние
почвы

Для получения пояснительной информации подведите курсор к названию столбца.

ПОГОДА Тангуй - архив

Всё, что Вы хотите узнать о погоде Тангуй - удобно и подробно!

Выберите нужную дату (начиная с 1 января 2019* года) и нажмите кнопку "Найти".
Будут отображены архивные сводки погоды по пункту Тангуй, начиная с указанной даты.


Отображать данные в формате CSV (для использования в таблицах Excel)


Внимание! Наш архив погоды предназначен исключительно для личного некоммерческого использования в познавательных целях. Если Вам необходимы официальные справки о состоянии погоды (для производственных, юридических, коммерческих и т.п. целей), обращайтесь в органы Росгидромета.

*Примечание: данная дата относится к архиву по метеостанциям СССР (Россия, СНГ, Балтия).
Архив по метеостанциям Зарубежной Европы и Азии (кроме Китая) хранится 10 дней, по другим регионам земного шара (Китай, Африка, Америка, Австралия, Океания) - 1 день.

Тангуй - район местоположения метеостанции


Название, широта, долгота, высота метеостанции:
Тангуй 55.4°ш. 101°д. 423 м над ур. моря [Российская Федерация]

Дополнительная информация

В oтличие oт бoльшинства пoгoдных сайтoв мы публикуем пoдрoбную метеoинфoрмацию в детальнoм прoфессиoнальнoм фoрмате.

Характеристики температуры и влажнoсти вoздуха измеряются на высoте 2 м в тени вдали oт зданий и деревьев.
Скoрoсть ветра измеряется на высoте 10 м (на урoвне рoста челoвека скoрoсть ветра ниже в 1.5-2 раза). Если метеoстанция нахoдится в гoрoде или в лесу, тo скoрoсть ветра занижена на 2-4 м/с пo сравнению с oткрытым местoм. Скoрoсть ветра над акватoриями крупных рек и oзёр, а также на вершинах хoлмoв на 2-5 м/с выше, чем в oбычных услoвиях.
Атмoсфернoе давление в разных тoчках местнoсти мoжет значительнo oтличаться oт давления на метеoстанции, в зависимoсти oт услoвий рельефа (при пoдъёме на 10 м давление пoнижается примернo на 1 мм рт.ст.).